Location: Cedar Falls
(42.5280°N, 92.4450°W)
Time: 08:35:27
(UTC-05:00)

NOSS 3-1 (C) - Visible Passes

Search period start: 18 April 2014 00:00
Search period end: 28 April 2014 00:00
Orbit: 903 x 1306 km, 63.4° (Epoch: 06 April)

Date Brightness Start Highest point End Pass type
(mag) Time Alt. Az. Time Alt. Az. Time Alt. Az.
18 Apr 6.1 01:40:59 10° NNW 01:46:12 21° NNE 01:51:42 10° ENE visible
18 Apr 4.4 03:31:20 10° NNW 03:38:40 61° NE 03:46:32 10° SE visible
18 Apr 4.5 05:22:42 10° NW 05:29:23 35° WSW 05:36:26 10° S visible
18 Apr 5.5 21:07:05 10° W 21:12:32 30° NW 21:18:26 10° NNE visible
18 Apr 6.4 23:02:45 10° NW 23:05:59 14° N 23:09:21 10° NNE visible
19 Apr 6.3 00:55:51 10° NNW 01:00:12 17° NNE 01:04:46 10° ENE visible
19 Apr 5.0 02:46:15 10° NNW 02:53:11 43° NE 03:00:38 10° ESE visible
19 Apr 4.1 04:37:06 10° NW 04:44:22 53° WSW 04:52:06 10° SSE visible
19 Apr 5.0 20:21:05 10° WSW 20:26:56 42° NW 20:33:20 10° NNE visible
19 Apr 6.3 22:16:03 10° NW 22:19:53 16° NNW 22:23:55 10° NNE visible
20 Apr 6.4 00:10:32 10° NNW 00:14:06 14° NNE 00:17:49 10° NE visible
20 Apr 5.5 02:01:11 10° NNW 02:07:34 31° NE 02:14:23 10° E visible
20 Apr 3.9 03:51:45 10° NW 03:59:14 79° WSW 04:07:16 10° SSE visible
20 Apr 5.2 05:44:46 10° WNW 05:49:16 17° WSW 05:53:55 10° SW visible
20 Apr 6.1 21:29:22 10° WNW 21:33:54 19° NNW 21:38:43 10° NNE visible
20 Apr 6.4 23:24:53 10° NNW 23:27:56 13° N 23:31:05 10° NNE visible
21 Apr 5.8 01:16:09 10° NNW 01:21:48 24° NNE 01:27:48 10° E visible
21 Apr 4.1 03:06:32 10° NNW 03:13:59 74° NE 03:21:59 10° SE visible
21 Apr 4.8 04:58:18 10° WNW 05:04:28 27° WSW 05:10:53 10° SSW visible
21 Apr 5.8 20:42:54 10° W 20:48:03 25° NNW 20:53:36 10° NNE visible
21 Apr 6.4 22:38:43 10° NNW 22:41:45 13° N 22:44:53 10° NNE visible
22 Apr 6.1 00:31:03 10° NNW 00:35:53 19° NNE 00:40:58 10° ENE visible
22 Apr 4.6 02:21:24 10° NNW 02:28:35 52° NE 02:36:18 10° ESE visible
22 Apr 4.3 04:12:31 10° NW 04:19:31 42° WSW 04:26:55 10° S visible
22 Apr 6.3 21:52:07 10° NW 21:55:36 14° NNW 21:59:14 10° NNE visible
22 Apr 6.3 23:45:51 10° NNW 23:49:50 15° NNE 23:54:00 10° NE visible
23 Apr 5.1 01:36:20 10° NNW 01:43:03 37° NE 01:50:14 10° ESE visible
23 Apr 3.9 03:27:02 10° NW 03:34:27 64° WSW 03:39:15 26° SSE visible
23 Apr 5.5 05:21:29 10° W 05:24:14 12° WSW 05:26:16 11° WSW visible
23 Apr 6.2 21:05:24 10° WNW 21:09:33 17° NNW 21:13:55 10° NNE visible
23 Apr 6.3 23:00:25 10° NNW 23:03:42 14° N 23:07:06 10° NE visible
24 Apr 5.6 00:51:17 10° NNW 00:57:22 28° NE 01:03:50 10° E visible
24 Apr 3.9 02:41:45 10° NW 02:49:15 89° NE 02:52:18 43° SE visible
24 Apr 5.0 04:34:06 10° WNW 04:39:29 21° WSW 04:39:33 21° WSW visible
24 Apr 6.3 22:14:32 10° NNW 22:17:31 13° N 22:20:36 10° NNE visible
25 Apr 5.9 00:06:14 10° NNW 00:11:32 21° NNE 00:17:08 10° ENE visible
25 Apr 4.3 01:56:35 10° NNW 02:03:56 63° NE 02:06:51 40° ESE visible
25 Apr 4.6 03:48:01 10° NW 03:54:09 33° WSW 03:54:09 33° WSW visible
25 Apr 6.2 21:28:09 10° NW 21:31:20 14° N 21:34:39 10° NNE visible
25 Apr 6.1 23:21:06 10° NNW 23:25:33 17° NNE 23:30:13 10° ENE visible
26 Apr 4.8 01:11:29 10° NNW 01:18:29 44° NE 01:21:54 29° E visible
26 Apr 4.1 03:02:23 10° NW 03:09:14 51° WSW 03:09:14 51° WSW visible
26 Apr 6.2 20:41:28 10° NW 20:45:14 15° NNW 20:49:11 10° NNE visible
26 Apr 6.2 22:35:49 10° NNW 22:39:27 14° NNE 22:43:14 10° NE visible
27 Apr 5.3 00:26:26 10° NNW 00:32:53 32° NE 00:37:14 20° E visible
27 Apr 3.8 02:17:00 10° NW 02:24:29 76° WSW 02:24:35 76° SW visible
27 Apr 5.6 04:10:13 10° WNW 04:11:55 14° W 04:11:55 14° W visible
27 Apr 6.2 21:50:12 10° NNW 21:53:17 13° N 21:56:29 10° NNE visible
27 Apr 5.6 23:41:23 10° NNW 23:47:07 24° NNE 23:52:45 12° E visible
